Orbital Elements at Epoch 2459200.5 (2020-Dec-17.0) TDB
Reference: JPL 17 (heliocentric ecliptic J2000)
Element | Value | Uncertainty (1-sigma) | Units |
e | .1960549162312518 | 5.3431e-08 | |
a | 2.704542364904327 | 1.9396e-08 | au |
q | 2.174303538109137 | 1.5549e-07 | au |
i | 4.809996281957733 | 4.6211e-06 | deg |
node | 316.5349527076465 | 6.4263e-05 | deg |
peri | 358.6266345916649 | 6.607e-05 | deg |
M | 351.4106861202263 | 1.3656e-05 | deg |
tp | 2459239.261009799590 (2021-Jan-24.76100980) | 6.1661e-05 | TDB |
period | 1624.572547140415 4.45 | 1.7477e-05 4.785e-08 | d yr |
n | .2215967521017604 | 2.3839e-09 | deg/d |
Q | 3.234781191699517 | 2.3199e-08 | au |
|
| | Orbit Determination Parameters
Additional Information
|